カタログに戻る

SCOUT G-1 DEB

運用中PO
NORAD 19515·DEBRIS·🇺🇸 United States

打ち上げ Aug 25, 1988 から Vandenberg Space Force Base

Loading…

次のパス (今後24時間)

TLE

最新Source: Space-Track

元期: Sep 13, 2026, 17:41 UTC

1 19515U 88074D   26256.73713589  .00000349  00000-0  51211-3 0  9991
2 19515  89.8838 334.7685 0091182 213.6637 269.3994 13.51084222869858

AllMySatでSCOUT G-1 DEBをリアルタイム追跡

Download on the App Store